[Date Prev][Date Next][Thread Prev][Thread Next] - [Date Index][Thread Index][Author Index]
2 Line ISS Keps 7-2
- Subject: [sarex] 2 Line ISS Keps 7-2
- From: "Dave Larsen PhD" <doc@xxxxxxxxxxx>
- Date: Fri, 1 Jul 2005 18:44:26 -0700
ISS
1 25544U 98067A 05182.97579944 .00012450 00000-0 95948-4 0 8204
2 25544 051.6446 185.0945 0001681 295.8243 105.2640 15.72418407378015
----
Via the sarex mailing list at AMSAT.ORG courtesy of AMSAT-NA.
To unsubscribe, send "unsubscribe sarex" to Majordomo@amsat.org
AMSAT Home